VTKKP VOMM-VOAR

Flight info

Callsign VTKKP
Flight time N/A
Altitude 3500
Route MMV KKP APEKO
Aircraft YS11/M-SDFHY/C

Departure

Time 2026-04-26 06:13
Airport Chennai International Airport (VOMM)

Arrival

Time N/A
Airport INS Rajali / Arakkonam Naval Air Station (VOAR)
Time Latitude Longitude Altitude Speed Heading
2026-04-26 06:08 12.99442 80.17666 49 ft 0 kts 127°
2026-04-26 06:11 12.99428 80.17690 90 ft 16 kts 151°
2026-04-26 06:11 12.99299 80.17566 157 ft 52 kts 244°
2026-04-26 06:12 12.99117 80.17235 245 ft 57 kts 230°
2026-04-26 06:12 12.98993 80.16892 328 ft 50 kts 236°
2026-04-26 06:12 12.98837 80.16580 361 ft 65 kts 231°
2026-04-26 06:12 12.98722 80.16196 549 ft 61 kts 228°
2026-04-26 06:13 12.98560 80.15800 984 ft 52 kts 233°
2026-04-26 06:13 12.98422 80.15462 1211 ft 60 kts 226°
2026-04-26 06:13 12.98177 80.15148 1364 ft 51 kts 176°
2026-04-26 06:13 12.97884 80.15055 1513 ft 49 kts 158°
2026-04-26 06:14 12.97548 80.15276 1691 ft 47 kts 137°
2026-04-26 06:14 12.97407 80.15723 1728 ft 75 kts 90°
2026-04-26 06:14 12.97089 80.16082 1506 ft 59 kts 145°
2026-04-26 06:14 12.97011 80.15947 1712 ft 42 kts 229°
2026-04-26 06:15 12.97050 80.15735 1971 ft 22 kts 121°
2026-04-26 06:15 12.96959 80.15617 1837 ft 45 kts 250°
2026-04-26 06:15 12.96966 80.15307 1991 ft 64 kts 252°
2026-04-26 06:15 12.96872 80.14818 2100 ft 72 kts 241°
2026-04-26 06:16 12.96718 80.14313 2214 ft 79 kts 240°
2026-04-26 06:16 12.96560 80.13779 2362 ft 78 kts 243°
2026-04-26 06:16 12.96373 80.13272 2541 ft 75 kts 234°
2026-04-26 06:16 12.96169 80.12733 2633 ft 84 kts 241°
2026-04-26 06:17 12.95957 80.12150 2622 ft 92 kts 243°
2026-04-26 06:17 12.95724 80.11568 2734 ft 86 kts 234°
2026-04-26 06:17 12.95442 80.11022 2829 ft 84 kts 231°
2026-04-26 06:17 12.95333 80.10853 2897 ft 82 kts 229°
2026-04-26 06:18 12.94989 80.10349 2913 ft 87 kts 227°
2026-04-26 06:18 12.94637 80.09848 2871 ft 88 kts 230°
2026-04-26 06:18 12.94298 80.09264 2704 ft 97 kts 236°
2026-04-26 06:18 12.93966 80.08719 2748 ft 88 kts 232°
2026-04-26 06:19 12.93597 80.08186 2620 ft 91 kts 226°
2026-04-26 06:19 12.93116 80.07781 2501 ft 88 kts 200°
2026-04-26 06:19 12.92654 80.07568 2711 ft 66 kts 210°
2026-04-26 06:19 12.92268 80.07222 2776 ft 77 kts 219°
2026-04-26 06:20 12.91894 80.06817 2769 ft 89 kts 223°
2026-04-26 06:20 12.91569 80.06247 2757 ft 81 kts 238°
2026-04-26 06:20 12.91289 80.05740 2848 ft 82 kts 230°
2026-04-26 06:20 12.90988 80.05157 2702 ft 98 kts 241°
2026-04-26 06:21 12.90714 80.04555 2723 ft 90 kts 238°
2026-04-26 06:21 12.90414 80.04012 2758 ft 86 kts 232°
2026-04-26 06:21 12.90165 80.03638 3071 ft 54 kts 223°
2026-04-26 06:21 12.89925 80.03335 3252 ft 62 kts 217°
2026-04-26 06:22 12.89592 80.02959 3282 ft 80 kts 219°
2026-04-26 06:22 12.89149 80.02554 3270 ft 82 kts 212°
2026-04-26 06:22 12.88740 80.02265 3570 ft 60 kts 198°
2026-04-26 06:22 12.88425 80.02087 3880 ft 51 kts 193°
2026-04-26 06:23 12.88092 80.01936 4020 ft 64 kts 190°
2026-04-26 06:23 12.87658 80.01651 4034 ft 78 kts 209°
2026-04-26 06:23 12.87198 80.01332 3982 ft 91 kts 205°
2026-04-26 06:23 12.86672 80.01023 3986 ft 85 kts 195°
2026-04-26 06:24 12.86090 80.00780 3810 ft 97 kts 199°
2026-04-26 06:24 12.85473 80.00566 3721 ft 90 kts 191°
2026-04-26 06:24 12.84850 80.00418 3578 ft 94 kts 189°
2026-04-26 06:24 12.84434 80.00358 3544 ft 89 kts 182°
2026-04-26 06:25 12.83629 80.00121 3390 ft 90 kts 194°
2026-04-26 06:25 12.83029 79.99972 3266 ft 91 kts 192°
2026-04-26 06:25 12.82412 79.99819 3130 ft 90 kts 186°
2026-04-26 06:25 12.81931 79.99877 3330 ft 48 kts 149°
2026-04-26 06:26 12.81750 79.99926 3488 ft 47 kts 174°
2026-04-26 06:26 12.81458 79.99796 3696 ft 46 kts 189°
2026-04-26 06:26 12.81113 79.99711 3783 ft 66 kts 178°
2026-04-26 06:26 12.80595 79.99637 3728 ft 82 kts 182°
2026-04-26 06:27 12.79984 79.99592 3547 ft 93 kts 183°
2026-04-26 06:27 12.79357 79.99563 3484 ft 88 kts 180°
2026-04-26 06:27 12.78737 79.99617 3396 ft 91 kts 176°
2026-04-26 06:27 12.78232 79.99695 3568 ft 63 kts 166°
2026-04-26 06:28 12.77851 79.99617 3719 ft 62 kts 199°
2026-04-26 06:28 12.77451 79.99451 3844 ft 66 kts 195°
2026-04-26 06:28 12.77162 79.99160 4016 ft 74 kts 265°
2026-04-26 06:28 12.77102 79.98828 4348 ft 44 kts 218°
2026-04-26 06:29 12.76784 79.98660 4324 ft 78 kts 187°
2026-04-26 06:29 12.76232 79.98537 4334 ft 81 kts 186°
2026-04-26 06:29 12.75609 79.98464 4140 ft 97 kts 181°
2026-04-26 06:29 12.74983 79.98495 4152 ft 77 kts 173°
2026-04-26 06:30 12.74463 79.98493 4013 ft 84 kts 181°
2026-04-26 06:30 12.73804 79.98444 3501 ft 104 kts 186°
2026-04-26 06:30 12.73069 79.98346 2892 ft 109 kts 193°
2026-04-26 06:30 12.72364 79.98234 2605 ft 100 kts 190°
2026-04-26 06:31 12.71765 79.98133 2637 ft 76 kts 192°
2026-04-26 06:31 12.71230 79.98025 2564 ft 83 kts 189°
2026-04-26 06:31 12.70707 79.98003 2555 ft 69 kts 165°
2026-04-26 06:31 12.70303 79.98158 2633 ft 53 kts 171°
2026-04-26 06:32 12.69962 79.98265 2658 ft 57 kts 158°
2026-04-26 06:32 12.69545 79.98411 2533 ft 70 kts 161°
2026-04-26 06:32 12.68981 79.98517 2144 ft 92 kts 173°
2026-04-26 06:32 12.68348 79.98573 1909 ft 86 kts 171°
2026-04-26 06:33 12.67802 79.98769 1738 ft 87 kts 160°
2026-04-26 06:33 12.67234 79.98993 1538 ft 84 kts 167°
2026-04-26 06:33 12.66688 79.99086 1395 ft 85 kts 165°
2026-04-26 06:33 12.66133 79.99122 1149 ft 80 kts 191°
2026-04-26 06:34 12.65670 79.99067 1244 ft 65 kts 175°
2026-04-26 06:34 12.65286 79.99027 1334 ft 61 kts 184°
2026-04-26 06:34 12.64855 79.98980 1312 ft 62 kts 183°
2026-04-26 06:34 12.64387 79.98857 1259 ft 51 kts 199°
2026-04-26 06:35 12.64117 79.98798 1481 ft 42 kts 175°
2026-04-26 06:35 12.63702 79.98661 1693 ft 69 kts 204°
2026-04-26 06:35 12.63412 79.98473 2125 ft 43 kts 202°
2026-04-26 06:35 12.63104 79.98278 2260 ft 65 kts 201°
2026-04-26 06:36 12.62620 79.98008 2086 ft 90 kts 202°
2026-04-26 06:36 12.62151 79.97691 1995 ft 83 kts 216°
2026-04-26 06:36 12.61658 79.97352 1544 ft 85 kts 210°
2026-04-26 06:36 12.61123 79.97081 1063 ft 91 kts 210°
2026-04-26 06:37 12.60594 79.96707 576 ft 97 kts 217°
2026-04-26 06:37 12.60077 79.96282 264 ft 91 kts 222°
2026-04-26 06:37 12.59695 79.95884 124 ft 65 kts 224°
2026-04-26 06:37 12.59460 79.95588 104 ft 41 kts 216°
2026-04-26 06:38 12.59333 79.95427 179 ft 21 kts 307°
2026-04-26 06:38 12.59294 79.95373 478 ft 25 kts 178°
2026-04-26 06:38 12.59106 79.95185 568 ft 55 kts 225°
2026-04-26 06:38 12.58761 79.94814 190 ft 75 kts 218°
2026-04-26 06:39 12.58374 79.94544 150 ft 63 kts 207°
2026-04-26 06:39 12.57992 79.94376 165 ft 56 kts 191°
2026-04-26 06:39 12.57629 79.94215 155 ft 53 kts 197°
2026-04-26 06:39 12.57295 79.94070 196 ft 47 kts 195°
2026-04-26 06:40 12.57007 79.93950 214 ft 46 kts 192°
2026-04-26 06:40 12.56909 79.93799 300 ft 37 kts 290°
2026-04-26 06:40 12.56818 79.93688 299 ft 53 kts 208°
2026-04-26 06:40 12.56815 79.93400 415 ft 54 kts 259°
2026-04-26 06:41 12.56744 79.92995 572 ft 58 kts 252°
2026-04-26 06:41 12.56655 79.92570 731 ft 67 kts 250°
2026-04-26 06:41 12.56518 79.92153 971 ft 60 kts 236°
2026-04-26 06:41 12.56313 79.91721 1114 ft 69 kts 228°
2026-04-26 06:42 12.55969 79.91343 1131 ft 73 kts 217°
2026-04-26 06:42 12.55525 79.90989 940 ft 90 kts 208°
2026-04-26 06:42 12.54960 79.90710 620 ft 101 kts 207°
2026-04-26 06:42 12.54322 79.90490 288 ft 90 kts 194°
2026-04-26 06:43 12.53812 79.90364 252 ft 64 kts 201°
2026-04-26 06:43 12.53478 79.90321 171 ft 27 kts 166°
2026-04-26 06:43 12.53290 79.90381 179 ft 39 kts 158°
2026-04-26 06:43 12.53199 79.90464 109 ft 0 kts 251°
2026-04-26 06:44 12.53201 79.90561 109 ft 10 kts 43°
2026-04-26 06:44 12.53202 79.90563 173 ft 3 kts 71°
2026-04-26 06:44 12.53266 79.90632 225 ft 33 kts 322°
2026-04-26 06:44 12.53161 79.90773 296 ft 32 kts 141°
2026-04-26 06:45 12.53050 79.90969 126 ft 22 kts 13°
2026-04-26 06:45 12.53053 79.91048 111 ft 31 kts 210°
2026-04-26 06:45 12.53041 79.91024 95 ft 0 kts 273°